EW9985 Weather Reports


time (UTC)temp
F
wind
direction
speed
knots
gust
knots
rain 1hr
in
rain 24hr
in
rain mn
in
humidity
%
barometer
mb
20260507134555 52 41 0.0 0.0 0.00 0.00 0.00 91 1015.1
20260507133057 51 41 0.0 0.9 0.00 0.00 0.00 91 1015.1
20260507131613 51 41 0.0 0.0 0.00 0.00 0.00 90 1014.8
20260507130047 51 41 0.0 1.7 0.00 0.00 0.00 90 1014.8
20260507124553 51 41 0.0 0.9 0.00 0.00 0.00 90 1014.7
20260507123046 52 41 0.0 0.9 0.00 0.00 0.00 89 1014.7
20260507121544 52 41 0.0 0.9 0.00 0.00 0.00 90 1014.6
20260507120043 52 40 0.0 1.7 0.00 0.00 0.00 89 1014.7
20260507114540 52 40 0.0 0.9 0.00 0.00 0.00 89 1014.8
20260507113102 52 40 0.0 0.9 0.00 0.00 0.00 89 1014.7
20260507111538 52 41 0.0 0.9 0.00 0.00 0.00 89 1015.0
20260507110039 53 41 0.0 0.9 0.00 0.00 0.00 89 1015.0
20260507104536 53 41 0.0 0.9 0.00 0.00 0.00 88 1015.0
20260507103033 54 41 0.0 0.9 0.00 0.00 0.00 88 1015.1
20260507101532 54 41 0.0 1.7 0.00 0.00 0.00 89 1015.1
20260507100042 54 64 0.0 2.6 0.00 0.00 0.00 88 1015.0
20260507094529 54 355 0.9 3.5 0.00 0.00 0.00 89 1015.1
20260507093031 54 32 0.0 3.5 0.00 0.00 0.00 88 1015.1
20260507091529 54 40 0.0 2.6 0.00 0.00 0.00 88 1015.3
20260507090122 54 18 0.0 0.9 0.00 0.00 0.00 87 1015.5
20260507084541 54 17 0.0 1.7 0.00 0.00 0.00 87 1015.8
20260507083024 54 17 0.0 0.9 0.00 0.00 0.00 87 1015.8
20260507081516 55 17 0.0 0.9 0.00 0.00 0.00 86 1016.0
20260507080016 55 17 0.0 1.7 0.00 0.00 0.00 86 1016.1
20260507074514 55 17 0.0 1.7 0.00 0.00 0.00 86 1016.0
20260507073012 56 15 0.0 1.7 0.00 0.00 0.00 86 1015.9
20260507071516 56 17 0.0 0.9 0.00 0.00 0.00 85 1016.0
20260507070016 56 15 0.0 1.7 0.00 0.00 0.00 85 1016.1
20260507064507 56 15 0.0 0.9 0.00 0.00 0.00 84 1016.2
20260507063007 57 14 0.0 0.9 0.00 0.00 0.00 84 1016.4
20260507061507 57 14 0.0 0.9 0.00 0.00 0.00 84 1016.3
20260507060006 58 13 0.0 0.9 0.00 0.00 0.00 83 1016.4
20260507054509 58 14 0.0 0.9 0.00 0.00 0.00 83 1016.4
20260507053006 58 13 0.0 0.9 0.00 0.00 0.00 82 1016.5
20260507051505 59 13 0.0 0.9 0.00 0.00 0.00 81 1016.1
20260507050013 59 13 0.0 1.7 0.00 0.00 0.00 82 1016.1
20260507044503 60 298 0.0 0.9 0.00 0.00 0.00 82 1016.0
20260507043003 60 293 0.0 0.9 0.00 0.00 0.00 81 1016.1
20260507041503 60 292 0.0 0.9 0.00 0.00 0.00 80 1016.1
20260507040002 61 291 0.0 0.9 0.00 0.00 0.00 80 1016.0
20260507034502 62 291 0.0 1.7 0.00 0.00 0.00 80 1015.9
20260507033001 62 198 0.0 1.7 0.00 0.00 0.00 80 1015.8
20260507031501 62 201 0.0 1.7 0.00 0.00 0.00 79 1015.7
20260507024559 63 348 0.0 1.7 0.00 0.00 0.00 80 1015.6
20260507023059 64 266 0.0 2.6 0.00 0.00 0.00 79 1015.4
20260507021611 64 84 0.0 4.3 0.00 0.00 0.00 78 1015.4
20260507020058 65 360 0.9 2.6 0.00 0.00 0.00 77 1015.2
20260507014559 66 238 1.7 5.2 0.00 0.00 0.00 75 1015.1
20260507013057 67 216 0.0 3.5 0.00 0.00 0.00 75 1015.0
20260507011559 68 246 1.7 7.8 0.00 0.00 0.00 73 1015.0
20260507010056 69 40 0.9 8.7 0.00 0.00 0.00 72 1015.1
20260507004556 70 67 1.7 5.2 0.00 0.00 0.00 71 1014.9
20260507003055 71 227 1.7 4.3 0.00 0.00 0.00 71 1014.9
20260507001604 71 360 0.9 6.1 0.00 0.00 0.00 72 1014.8
20260507000055 71 37 1.7 3.5 0.00 0.00 0.00 70 1014.8
20260506234616 71 238 0.9 5.2 0.00 0.00 0.00 71 1014.8
20260506233052 72 111 0.9 5.2 0.00 0.00 0.00 68 1014.8
20260506231555 72 271 0.9 6.1 0.00 0.00 0.00 65 1014.8
20260506230052 72 319 1.7 5.2 0.00 0.00 0.00 62 1014.8
20260506224549 73 72 2.6 6.1 0.00 0.00 0.00 61 1015.0
20260506223056 73 230 0.0 4.3 0.00 0.00 0.00 60 1015.3
20260506221543 72 285 0.9 5.2 0.00 0.00 0.00 66 1015.4
20260506220041 71 61 1.7 5.2 0.00 0.00 0.00 69 1015.7
20260506214542 71 229 0.9 3.5 0.00 0.00 0.00 69 1015.8
20260506213037 72 95 0.9 4.3 0.00 0.00 0.00 68 1016.0
20260506211535 71 323 0.9 4.3 0.00 0.00 0.00 69 1016.3
20260506210038 71 212 1.7 6.1 0.00 0.00 0.00 69 1016.3
20260506204546 70 35 0.9 5.2 0.00 0.00 0.00 69 1016.4
20260506203031 69 315 0.9 6.1 0.00 0.00 0.00 71 1016.5
20260506201534 69 109 0.9 4.3 0.00 0.00 0.00 71 1016.8
20260506200030 69 64 0.9 5.2 0.00 0.00 0.00 71 1016.9
20260506194527 69 212 1.7 4.3 0.00 0.00 0.00 70 1017.0
20260506193025 69 168 0.9 4.3 0.00 0.00 0.00 71 1017.2
20260506191527 69 40 0.9 4.3 0.00 0.00 0.00 71 1017.4
20260506190023 69 12 0.9 3.5 0.00 0.00 0.00 70 1017.4
20260506184520 69 223 0.9 3.5 0.00 0.00 0.00 70 1017.3
20260506183021 69 196 0.9 3.5 0.00 0.00 0.00 73 1017.6
20260506181520 69 220 0.0 2.6 0.00 0.00 0.00 72 1017.8
20260506180015 69 218 0.0 3.5 0.00 0.00 0.00 72 1017.9
20260506174507 68 222 0.9 3.5 0.00 0.00 0.00 72 1017.7
20260506173004 68 219 0.0 1.7 0.00 0.00 0.00 72 1017.7
20260506171601 67 207 0.0 2.6 0.00 0.00 0.00 73 1017.7
20260506170056 67 199 0.0 3.5 0.00 0.00 0.00 74 1017.6
20260506164556 66 208 0.0 2.6 0.00 0.00 0.00 75 1017.7
20260506163051 65 211 0.0 2.6 0.00 0.00 0.00 78 1017.9
20260506161550 63 208 0.0 1.7 0.00 0.00 0.00 80 1017.6
20260506160045 61 141 0.0 2.6 0.00 0.00 0.00 85 1017.7
20260506154534 59 185 0.0 2.6 0.00 0.00 0.00 87 1017.6
20260506153029 58 177 0.0 1.7 0.00 0.00 0.00 88 1017.6
20260506151533 57 13 0.0 1.7 0.00 0.00 0.00 87 1017.5
20260506150029 56 13 0.0 0.9 0.00 0.00 0.00 86 1017.5
20260506144522 55 11 0.0 1.7 0.00 0.00 0.00 86 1017.3
20260506143036 54 15 0.0 2.6 0.00 0.00 0.00 86 1017.4
20260506141518 53 14 0.9 2.6 0.00 0.00 0.00 86 1017.5
20260506140017 52 13 0.9 2.6 0.00 0.00 0.00 86 1017.4